Location: Earls Croome
(52.0667°N, 2.2000°W)
Time: 10:36:45
(UTC+00:00)

COSMOS 2455 - Pass Details

Date: 29 February 2020
Orbit: 901 x 909 km, 67.2° (Epoch: 07 April)

Event Time Altitude Azimuth Distance (km) Brightness Sun altitude
Exits shadow 02:09:08 20° 356° (N) 1,993 5.0 -40.6°
Maximum altitude 02:10:29 21° 14° (NNE) 1,923 5.0 -40.4°
Drops below altitude 10° 02:14:58 10° 62° (ENE) 2,600 5.8 -40.0°
Sets 02:18:09 0° 78° (ENE) 3,541 6.5 -39.7°
